This is the latest recevied weather packets stored in our database for station/object DL6SW-10. If no packets are shown the sender has not sent any weather packets the latest 1 day(s).
| Time | Temp. | Humidity | Pressure | Rain* | Wind** | Luminosity | Snow |
|---|---|---|---|---|---|---|---|
| 1777845788 | 16.11° C | 49% | 1017.7 hPa | - | - | - | - |
| 1777844914 | 17.22° C | 46% | 1018.7 hPa | - | - | - | - |
| 1777844886 | 17.22° C | 46% | 1018.7 hPa | - | - | - | - |
| 1777843994 | 17.78° C | 43% | 1018.3 hPa | - | - | - | - |
| 1777843986 | 17.78° C | 43% | 1018.3 hPa | - | - | - | - |
| 1777843094 | 18.33° C | 41% | 1018.3 hPa | - | - | - | - |
| 1777843084 | 18.33° C | 41% | 1018.3 hPa | - | - | - | - |
| 1777842267 | 18.33° C | 39% | 1017.8 hPa | - | - | - | - |
| 1777842183 | 18.33° C | 39% | 1017.8 hPa | - | - | - | - |
| 1777841295 | 18.89° C | 39% | 1017.4 hPa | - | - | - | - |
| 1777841282 | 18.89° C | 39% | 1017.4 hPa | - | - | - | - |
| 1777840387 | 18.89° C | 38% | 1017.4 hPa | - | - | - | - |
| 1777840381 | 18.89° C | 38% | 1017.4 hPa | - | - | - | - |
| 1777839483 | 19.44° C | 37% | 1017.5 hPa | - | - | - | - |
| 1777839479 | 19.44° C | 37% | 1017.5 hPa | - | - | - | - |
| 1777838655 | 19.44° C | 37% | 1016.7 hPa | - | - | - | - |
| 1777838578 | 19.44° C | 37% | 1016.7 hPa | - | - | - | - |
| 1777837685 | 19.44° C | 37% | 1017 hPa | - | - | - | - |
| 1777837678 | 19.44° C | 37% | 1017 hPa | - | - | - | - |
| 1777836795 | 20° C | 36% | 1017 hPa | - | - | - | - |
| 1777836776 | 20° C | 36% | 1017 hPa | - | - | - | - |
| 1777835893 | 20° C | 36% | 1016.5 hPa | - | - | - | - |
| 1777835875 | 20° C | 36% | 1016.5 hPa | - | - | - | - |
| 1777835058 | 20.56° C | 36% | 1016.1 hPa | - | - | - | - |
| 1777834974 | 20.56° C | 36% | 1016.1 hPa | - | - | - | - |
* Rain since midnight (hover to see other rain measurements)
** Current wind speed in m/s (hover to see current wind gust speed)